Weather History for Jackson Hawkins Field, MS

Change the Weather History Date:

Wednesday, May 15, 2013

  Actual Average (KJAN) Record (KJAN)
Temperature  
Mean Temperature 72 °F 72 °F  
Max Temperature 84 °F 83 °F 92 °F (1915)
Min Temperature 61 °F 62 °F 41 °F (1917)
Degree Days  
Heating Degree Days 0 0  
Month to date heating degree days 10  
Since 1 July heating degree days 2389  
Cooling Degree Days 8 7  
Month to date cooling degree days 88  
Year to date cooling degree days 206  
Growing Degree Days 22 (Base 50)    
Moisture  
Dew Point 57 °F    
Average Humidity 58    
Maximum Humidity 78    
Minimum Humidity 40    
Precipitation  
Precipitation 0.00 in 0.14 in 3.12 in (1983)
Month to date precipitation 2.11  
Year to date precipitation 21.84  
Sea Level Pressure  
Sea Level Pressure 30.10 in    
Wind  
Wind Speed 6 mph (SSW)    
Max Wind Speed 10 mph    
Max Gust Speed 17 mph    
Visibility 10 miles    
Events      
T = Trace of Precipitation, MM = Missing Value Source: NWS Daily Summary

Daily Weather History Graph

Daily Weather History Graph

Search for Another Location

Airport:

Trip Planner

Search our weather history database for the weather conditions in past years. The results will help you decide how hot, cold, wet, or windy it might be!

Date:

Astronomy

May. 15, 2013 Rise Set
Actual Time 6:02 AM CDT 7:52 PM CDT
Civil Twilight 5:35 AM CDT 8:19 PM CDT
Nautical Twilight 5:03 AM CDT 8:51 PM CDT
Astronomical Twilight 4:28 AM CDT 9:26 PM CDT
Moon 10:35 AM CDT (5/15) No Moon Set
Length of Visible Light 14h 43m
Length of Day
13h 49m
Waxing Crescent, 27% of the Moon is Illuminated
May 15
Waxing Crescent
May 17
First Quarter
May 24
Full
May 31
Last Quarter
Jun 8
New

Hourly Weather History & Observations

Time (CDT) Temp. Heat Index Dew Point Humidity Pressure Visibility Wind Dir Wind Speed Gust Speed Precip Events Conditions
12:53 AM 70.0 °F - 54.0 °F 57% 30.13 in 10.0 mi WSW 10.4 mph - N/A   Clear
1:53 AM 66.9 °F - 54.0 °F 63% 30.14 in 10.0 mi SW 4.6 mph - N/A   Clear
2:53 AM 64.9 °F - 54.0 °F 68% 30.14 in 10.0 mi Calm Calm - N/A   Clear
3:53 AM 63.0 °F - 54.0 °F 72% 30.14 in 10.0 mi Calm Calm - N/A   Clear
4:53 AM 63.0 °F - 53.1 °F 70% 30.14 in 10.0 mi Calm Calm - N/A   Clear
5:53 AM 62.1 °F - 53.1 °F 72% 30.15 in 10.0 mi Calm Calm - N/A   Clear
6:53 AM 61.0 °F - 54.0 °F 78% 30.17 in 10.0 mi Calm Calm - N/A   Clear
7:53 AM 66.0 °F - 55.9 °F 70% 30.18 in 10.0 mi Calm Calm - N/A   Clear
8:53 AM 71.1 °F - 59.0 °F 66% 30.18 in 10.0 mi WSW 10.4 mph - N/A   Clear
9:53 AM 75.0 °F - 60.1 °F 60% 30.17 in 10.0 mi West 5.8 mph - N/A   Clear
10:53 AM 77.0 °F - 59.0 °F 54% 30.17 in 10.0 mi SSW 8.1 mph - N/A   Clear
11:53 AM 81.0 °F 80.8 °F 55.9 °F 42% 30.15 in 10.0 mi SW 9.2 mph 17.3 mph N/A   Clear
12:53 PM 82.0 °F 82.0 °F 57.9 °F 44% 30.13 in 10.0 mi South 9.2 mph - N/A   Clear
1:53 PM 82.9 °F 82.6 °F 57.9 °F 42% 30.10 in 10.0 mi SW 8.1 mph - N/A   Clear
2:53 PM 82.9 °F 82.8 °F 59.0 °F 44% 30.08 in 10.0 mi SSW 9.2 mph - N/A   Clear
3:53 PM 84.0 °F 83.3 °F 57.0 °F 40% 30.05 in 10.0 mi SW 9.2 mph - N/A   Clear
4:53 PM 81.0 °F 81.0 °F 57.0 °F 44% 30.04 in 10.0 mi SSW 9.2 mph - N/A   Clear
5:53 PM 80.1 °F 80.7 °F 59.0 °F 48% 30.02 in 10.0 mi South 4.6 mph - N/A   Clear
6:53 PM 78.1 °F - 60.1 °F 54% 29.99 in 10.0 mi SSE 5.8 mph - N/A   Clear
7:53 PM 77.0 °F - 61.0 °F 58% 30.01 in 10.0 mi South 6.9 mph - N/A   Partly Cloudy
8:53 PM 73.9 °F - 61.0 °F 64% 30.00 in 10.0 mi SSE 4.6 mph - N/A   Clear
9:53 PM 73.0 °F - 59.0 °F 61% 30.01 in 10.0 mi South 6.9 mph - N/A   Clear
10:53 PM 72.0 °F - 57.9 °F 61% 30.01 in 10.0 mi South 6.9 mph - N/A   Clear
11:53 PM 70.0 °F - 57.9 °F 65% 30.02 in 10.0 mi South 8.1 mph - N/A   Clear